TimeEDT,TemperatureF,Dew PointF,Humidity,Sea Level PressureIn,VisibilityMPH,Wind Direction,Wind SpeedMPH,Gust SpeedMPH,PrecipitationIn,Events,Conditions,WindDirDegrees,DateUTC
12:51 AM,46.9,43.0,86,30.30,10.0,West,5.8,-,N/A,,Clear,280,2013-09-18 04:51:00
1:51 AM,46.0,43.0,89,30.29,10.0,West,3.5,-,N/A,,Clear,260,2013-09-18 05:51:00
2:51 AM,44.1,42.1,93,30.28,10.0,West,3.5,-,N/A,,Clear,280,2013-09-18 06:51:00
3:51 AM,44.1,41.0,89,30.28,10.0,Calm,Calm,-,N/A,,Clear,0,2013-09-18 07:51:00
4:51 AM,44.1,41.0,89,30.28,10.0,Calm,Calm,-,N/A,,Clear,0,2013-09-18 08:51:00
5:51 AM,43.0,41.0,93,30.28,10.0,West,5.8,-,N/A,,Clear,270,2013-09-18 09:51:00
6:51 AM,44.1,41.0,89,30.29,10.0,West,3.5,-,N/A,,Clear,260,2013-09-18 10:51:00
7:51 AM,48.9,45.0,86,30.28,10.0,West,3.5,-,N/A,,Clear,280,2013-09-18 11:51:00
8:51 AM,53.1,48.0,83,30.28,10.0,West,5.8,-,N/A,,Clear,280,2013-09-18 12:51:00
9:51 AM,60.1,48.9,67,30.27,10.0,Calm,Calm,-,N/A,,Clear,0,2013-09-18 13:51:00
10:51 AM,62.1,46.0,56,30.25,10.0,Calm,Calm,-,N/A,,Clear,0,2013-09-18 14:51:00
11:51 AM,66.9,46.0,47,30.24,10.0,SE,4.6,-,N/A,,Clear,140,2013-09-18 15:51:00
12:51 PM,69.1,44.1,40,30.21,10.0,Variable,3.5,-,N/A,,Clear,0,2013-09-18 16:51:00
1:51 PM,69.1,46.0,44,30.19,10.0,Variable,5.8,-,N/A,,Clear,0,2013-09-18 17:51:00
2:51 PM,68.0,46.9,47,30.17,10.0,South,8.1,-,N/A,,Clear,180,2013-09-18 18:51:00
3:51 PM,66.9,42.1,40,30.14,10.0,South,9.2,-,N/A,,Clear,180,2013-09-18 19:51:00
4:51 PM,64.9,39.9,40,30.13,10.0,South,8.1,-,N/A,,Clear,180,2013-09-18 20:51:00
5:51 PM,64.0,42.1,45,30.12,10.0,South,8.1,-,N/A,,Clear,180,2013-09-18 21:51:00
6:51 PM,59.0,51.1,75,30.12,10.0,Calm,Calm,-,N/A,,Clear,0,2013-09-18 22:51:00
7:51 PM,55.9,51.1,84,30.13,10.0,Calm,Calm,-,0.00,,Clear,0,2013-09-18 23:51:00
8:51 PM,55.0,52.0,89,30.12,10.0,Calm,Calm,-,N/A,,Clear,0,2013-09-19 00:51:00
9:51 PM,53.1,50.0,89,30.12,10.0,Calm,Calm,-,N/A,,Clear,0,2013-09-19 01:51:00
10:51 PM,51.1,48.9,92,30.12,10.0,Calm,Calm,-,N/A,,Clear,0,2013-09-19 02:51:00
11:51 PM,51.1,48.0,89,30.11,10.0,WSW,3.5,-,N/A,,Clear,240,2013-09-19 03:51:00